Ketchikan, AK

3:52 PM AKST on November 15, 2018 (GMT -0900)
Ketchikan International

Weather History for PAKT - July, 2018

Change the Weather History Date:

Monday, July 2, 2018

  Actual Average Record
Temperature  
Mean Temperature 61 °F -  
Max Temperature 70 °F 63 °F 79 °F (1951)
Min Temperature 54 °F 47 °F 42 °F (1971)
Degree Days  
Heating Degree Days 4    
Growing Degree Days 11 (Base 50)    
Moisture  
Dew Point 47 °F    
Average Humidity 63    
Maximum Humidity 83    
Minimum Humidity 43    
Precipitation  
Precipitation 0.00 in - - ()
Sea Level Pressure  
Sea Level Pressure 30.30 in    
Wind  
Wind Speed 8 mph (NNW)    
Max Wind Speed 12 mph    
Max Gust Speed 20 mph    
Visibility 10 miles    
Events      
Averages and records for this station are not official NWS values.
T = Trace of Precipitation, MM = Missing Value Source: NWS Daily Summary

Daily Weather History Graph

Daily Weather History Graph

Search for Another Location

Airport or City:

Astronomy

Jul. 02, 2018 Rise Set
Actual Time 4:10 AM AKDT 9:30 PM AKDT
Civil Twilight 3:12 AM AKDT 10:28 PM AKDT
Nautical Twilight 1:23 AM AKDT 12:18 AM AKDT
Astronomical Twilight Sun does not rise Sun does not rise
Moon 11:49 PM AKDT (7/2) 8:51 AM AKDT (7/2)
Length of Visible Light 19h 15m
Length of Day
17h 19m
Waning Gibbous, 82% of the Moon is Illuminated
Jul 2
Waning Gibbous
Jul 5
Last Quarter
Jul 12
New
Jul 19
First Quarter
Jul 27
Full

Hourly Weather History & Observations

Time (AKDT) Temp. Dew Point Humidity Pressure Visibility Wind Dir Wind Speed Gust Speed Precip Events Conditions
12:53 AM 55.9 °F 48.0 °F 75% 30.29 in 10.0 mi North 6.9 mph - N/A   Partly Cloudy
1:53 AM 55.0 °F 46.9 °F 74% 30.29 in 10.0 mi NNW 6.9 mph - N/A   Partly Cloudy
2:53 AM 54.0 °F 48.9 °F 83% 30.30 in 10.0 mi NNW 8.1 mph - N/A   Clear
3:53 AM 54.0 °F 48.9 °F 83% 30.30 in 10.0 mi North 6.9 mph - N/A   Clear
4:53 AM 54.0 °F 48.0 °F 80% 30.31 in 10.0 mi NNW 6.9 mph - N/A   Partly Cloudy
5:53 AM 54.0 °F 48.9 °F 83% 30.32 in 10.0 mi NNW 5.8 mph - N/A   Scattered Clouds
6:53 AM 57.0 °F 48.9 °F 74% 30.32 in 10.0 mi NNW 8.1 mph - N/A   Partly Cloudy
7:53 AM 57.2 °F 48.2 °F 72% 30.33 in 10.0 mi NNW 10.4 mph - N/A   Mostly Cloudy
8:53 AM 60.8 °F 48.2 °F 63% 30.33 in 10.0 mi North 9.2 mph - N/A   Scattered Clouds
9:53 AM 62.6 °F 48.2 °F 59% 30.32 in 10.0 mi North 9.2 mph - N/A   Partly Cloudy
10:53 AM 64.4 °F 46.4 °F 52% 30.32 in 10.0 mi NNW 11.5 mph - N/A   Mostly Cloudy
11:53 AM 64.4 °F 46.4 °F 52% 30.33 in 10.0 mi NNW 11.5 mph - N/A   Scattered Clouds
12:53 PM 64.4 °F 46.4 °F 52% 30.33 in 10.0 mi NNW 10.4 mph - N/A   Overcast
1:53 PM 66.2 °F 44.6 °F 46% 30.33 in 10.0 mi NNW 8.1 mph - N/A   Mostly Cloudy
2:53 PM 66.2 °F 46.4 °F 49% 30.32 in 10.0 mi NNW 10.4 mph - N/A   Mostly Cloudy
3:53 PM 68.0 °F 44.6 °F 43% 30.31 in 10.0 mi NNW 10.4 mph - N/A   Mostly Cloudy
4:53 PM 66.2 °F 46.4 °F 49% 30.30 in 10.0 mi NW 8.1 mph 19.6 mph N/A   Mostly Cloudy
5:53 PM 68.0 °F 46.4 °F 46% 30.29 in 10.0 mi WNW 8.1 mph - N/A   Overcast
6:53 PM 66.2 °F 46.4 °F 49% 30.28 in 10.0 mi WNW 6.9 mph - N/A   Overcast
7:53 PM 64.0 °F 46.9 °F 54% 30.28 in 10.0 mi NW 8.1 mph - N/A   Overcast
8:53 PM 62.6 °F 46.4 °F 55% 30.27 in 10.0 mi NW 4.6 mph - N/A   Scattered Clouds
9:53 PM 61.0 °F 50.0 °F 67% 30.28 in 10.0 mi North 6.9 mph - N/A   Clear
10:53 PM 54.0 °F 46.9 °F 77% 30.27 in 10.0 mi West 3.5 mph - N/A   Clear
11:53 PM 54.0 °F 48.0 °F 80% 30.27 in 10.0 mi WNW 3.5 mph - N/A   Clear